EW5191 Weather Reports


time (UTC)temp
C
wind
direction
speed
KPH
gust
KPH
rain 1hr
cm
rain 24hr
cm
rain mn
cm
humidity
%
barometer
mb
20260504081547 10 163 3.2 3.2 0.00 0.00 0.00 49 1005.2
20260504044532 11 353 0.0 3.2 0.00 0.00 0.00 42 1005.5
20260504043032 12 130 0.0 1.6 0.00 0.00 0.00 42 1005.5
20260504041534 12 132 0.0 3.2 0.00 0.00 0.00 42 1005.6
20260504040032 13 131 0.0 0.0 0.00 0.00 0.00 41 1005.5
20260504034540 13 131 0.0 0.0 0.00 0.00 0.00 40 1005.4
20260504033031 15 131 1.6 6.4 0.00 0.00 0.00 37 1005.2
20260504031533 16 144 4.8 6.4 0.00 0.00 0.00 36 1005.1
20260504030038 16 123 4.8 6.4 0.00 0.00 0.00 34 1005.0
20260504024530 16 145 4.8 6.4 0.00 0.00 0.00 34 1004.9
20260504023030 18 144 3.2 4.8 0.00 0.00 0.00 32 1004.8
20260504021528 19 126 1.6 4.8 0.00 0.00 0.00 30 1004.7
20260504020030 20 130 0.0 3.2 0.00 0.00 0.00 28 1004.8
20260504014528 21 132 0.0 1.6 0.00 0.00 0.00 26 1004.9
20260504013027 21 99 0.0 8.0 0.00 0.00 0.00 27 1005.0
20260504011524 21 54 4.8 6.4 0.00 0.00 0.00 26 1005.1
20260504010024 22 86 0.0 1.6 0.00 0.00 0.00 25 1005.3
20260504004523 22 53 3.2 14.5 0.00 0.00 0.00 25 1005.4
20260504003018 22 78 3.2 11.3 0.00 0.00 0.00 25 1005.5
20260504001518 22 36 1.6 14.5 0.00 0.00 0.00 25 1005.7
20260504000016 22 128 1.6 8.0 0.00 0.00 0.00 26 1005.8
20260503234513 22 39 8.0 14.5 0.00 0.00 0.00 25 1006.0
20260503233011 22 326 6.4 17.7 0.00 0.00 0.00 26 1006.0
20260503231511 22 13 3.2 9.7 0.00 0.00 0.00 26 1006.2
20260503230007 21 316 4.8 20.9 0.00 0.00 0.00 27 1006.5
20260503224505 21 40 9.7 25.7 0.00 0.00 0.00 27 1006.5
20260503223004 22 38 11.3 20.9 0.00 0.00 0.00 26 1006.5
20260503221504 22 49 6.4 27.4 0.00 0.00 0.00 26 1006.6
20260503220001 22 31 14.5 20.9 0.00 0.00 0.00 26 1006.7
20260503214600 22 78 1.6 8.0 0.00 0.00 0.00 27 1007.0
20260503213132 21 331 4.8 14.5 0.00 0.00 0.00 27 1007.3
20260503211620 21 350 4.8 14.5 0.00 0.00 0.00 27 1007.5
20260503210055 21 4 12.9 25.7 0.00 0.00 0.00 26 1007.6
20260503204608 21 24 12.9 20.9 0.00 0.00 0.00 27 1007.7
20260503203054 21 240 1.6 9.7 0.00 0.00 0.00 27 1008.0
20260503201555 21 10 11.3 25.7 0.00 0.00 0.00 27 1008.2
20260503200054 21 350 6.4 16.1 0.00 0.00 0.00 27 1008.3
20260503194552 20 207 3.2 17.7 0.00 0.00 0.00 27 1008.6
20260503193050 21 348 1.6 19.3 0.00 0.00 0.00 28 1008.9
20260503191600 21 38 11.3 19.3 0.00 0.00 0.00 27 1009.1
20260503190044 21 85 0.0 17.7 0.00 0.00 0.00 28 1009.4
20260503184553 20 149 4.8 19.3 0.00 0.00 0.00 27 1009.7
20260503183044 20 8 1.6 16.1 0.00 0.00 0.00 29 1009.8
20260503181536 20 106 1.6 8.0 0.00 0.00 0.00 31 1010.2
20260503180035 18 292 1.6 16.1 0.00 0.00 0.00 33 1010.5
20260503174538 18 360 1.6 11.3 0.00 0.00 0.00 36 1010.8
20260503173026 17 23 4.8 11.3 0.00 0.00 0.00 37 1011.1
20260503171529 17 33 8.0 16.1 0.00 0.00 0.00 39 1011.3